Regional Weather Roundup
Issued by NWS State College, PA

Home | Current Version | Previous Version | Graphics & Text | Print | Product List | Glossary Off
Versions: 1 2 3 4 5 6 7 8 9 10 11 12 13 14 15 16 17 18 19 20 21 22 23 24 25 26 27 28 29 30 31 32 33 34 35 36 37 38 39 40 41 42 43 44 45 46 47 48 49 50

058
ASUS41 KCTP 192003
RWRCTP

REGIONAL WEATHER ROUNDUP
NATIONAL WEATHER SERVICE STATE COLLEGE PA
400 PM EDT THU APR 19 2018

Note: "fair" indicates few or no clouds below 12,000 feet with no
significant weather and/or obstructions to visibility.

* = STATION THAT DOES NOT REPORT PRECIPITATION /E.G. RAIN...SNOW...ETC/
    THUNDER OR FOG.

PAZ002>004-007>009-013>016-020>023-029>032-192100-
WESTERN PENNSYLVANIA

CITY           SKY/WX    TMP DP  RH WIND       PRES   REMARKS
ERIE           CLOUDY    38  27  64 W17G29    30.11R
MEADVILLE      CLOUDY    34  25  69 W15G31    30.07R
FRANKLIN*      LGT RAIN  35  28  75 NW12G20   30.05R
NEW CASTLE     CLOUDY    40  27  59 NW15G25   30.11R
BEAVER COUNTY  CLOUDY    39  28  65 NW16G25   30.09R
BUTLER*        CLOUDY    38  28  67 NW10G22   30.08R
PITTSBURGH INT CLOUDY    40  29  64 NW21G29   30.09R
PITTSBURGH     CLOUDY    38  28  67 NW17G26   30.07R
INDIANA*       CLOUDY    37  28  70 NW15G23   30.07R
LATROBE        PTSUNNY   37  28  70 NW12G23   30.08R
WASHINGTON CO* CLOUDY    39  29  67 NW16G22   30.13R
$$

PAZ004>006-010>012-017>019-024>028-033>037-041-042-045-046-049>053-192100-
CENTRAL PENNSYLVANIA

CITY           SKY/WX    TMP DP  RH WIND       PRES   REMARKS
BRADFORD       FLURRIES  32  22  66 NW15G24   29.95R
DUBOIS         CLOUDY    33  25  72 NW13G29   29.98R
CLEARFIELD     CLOUDY    34  25  69 NW12G20   29.99R
JOHNSTOWN      CLOUDY    31  26  82 NW21G31   29.97R
ALTOONA        CLOUDY    37  26  64 NW17G26   29.99R
STATE COLLEGE  CLOUDY    36  25  64 NW16G36   29.96R
WILLIAMSPORT   CLOUDY    43  26  51 NW21      29.89R
SELINSGROVE    CLOUDY    44  28  53 NW12G22   29.91R
FT INDIANTOWN  CLOUDY    43  28  54 W16G24    29.89R
CAPITAL CITY   CLOUDY    47  30  51 NW15G25   29.92R
HARRISBURG     CLOUDY    45  30  55 NW20G28   29.91R
YORK           CLOUDY    44  32  62 NW16G31   29.92R
$$

PAZ038>040-043-044-047-048-054-055-060>062-067>071-192100-
EASTERN PENNSYLVANIA

CITY           SKY/WX    TMP DP  RH WIND       PRES   REMARKS
SCRANTON       CLOUDY    40  31  70 NW17G24   29.83R
MOUNT POCONO   LGT SNOW  34  29  82 NW22G33   29.77R
ALLENTOWN      PTSUNNY   45  32  60 W13       29.84R
QUAKERTOWN*    CLOUDY    41  37  87 NW8G15    29.85R FOG
READING        PTSUNNY   47  36  65 NW22      29.86R
LANCASTER      CLOUDY    45  32  60 NW17G29   29.88R
COATESVILLE    CLOUDY    45  32  61 NW21G31   29.87R
POTTSTOWN      CLOUDY    44  32  62 NW16G26   29.87R
BLUE BELL      CLOUDY    41  37  87 NW7       29.86R
DOYLESTOWN     PTSUNNY   44  35  70 NW12G21   29.82R
WILLOW GROVE   NOT AVBL
NORTH PHILA    CLOUDY    46  37  71 N16       29.86R
PHILADELPHIA   CLOUDY    47  31  53 NW24G31   29.86R
$$




USA.gov is the U.S. government's official web portal to all federal, state and local government web resources and services.